STARLINK-5894, 55965

Orbit data source: Space-Track

STARLINK-5894, 55965 is a payload satellite owned by SpaceX/Seattle (US) in LEO that was launched on Fri, 17 Mar 2023 UTC via an FALCON 9 launch vehicle from the Air Force Western Test Range (AFWTR). Payload-class satellites include a variety of spacecraft equipped with specific instruments for various scientific and technological missions. These include communications satellites like Starlink; space stations such as the ISS; scientific satellites like the Hubble; Earth observation satellites from companies like Planet Labs, Umbra, and HawkEye 360; GPS; miniature CubeSats for education and research; and military/defense satellites.

Loading next visibility...
Identifier
55965, 2023-037BD
Orbit
LEO
Country
Flag of USUS
Related business
Manufacturer
SpaceX/Seattle
Mission
Operational Commercial Communications
Bus & Motor
STARLINK, Unknown motor
Mass
305 kg wet, ~290 kg dry
Launch date (UTC)
2023-03-17 (3 years ago)
Launch vehicle
FALCON 9
Launch site
Air Force Western Test Range (AFWTR)
Object type
Payload
Rocket body
Debris
Shape & HBR
Box + 1 Pan, 10.1 m
Radar Cross Section
11.087 m², Large (>1 m²)

Expand to show TLE details & history
Last TLE update: 22 hours ago

TLE from 22 hours ago
0 STARLINK-5894
1 55965U 23037BD  25348.68435166  .00001480  00000-0  13182-3 0  9997
2 55965  69.9993 118.6468 0003235 273.1075  86.9714 14.98328751151740
Epoch: 2025-12-14T16:25Z
TLE epoch observation values (Epoch: 2025-12-14T16:25:27.983Z)
Latitude
-0.00001°
Longitude
148.68647°
Altitude
574.365 km
Speed
7.574 km/s
True Right ascension
07h 54m 35s
True Declination
0° 00' 00"
Sunlit
Object was in full shadow at epoch
Visualization orbit readout
Latitude
Unknown
Longitude
Unknown
Altitude
Unknown
Speed
Unknown
Apparent Right ascension
Unknown
Apparent Declination
Unknown
Sunlit
N/A
Visualization observer readout
Local Sidereal Time
13:18:57
Azimuth
Unknown
Elevation
Unknown
Doppler factor
Unknown
Orbital elements
Apogee altitude
572.256 km
Perigee altitude
567.76 km
Semi-major axis
6,948.145 km
Eccentricity
0.00032
Inclination
69.9993°
RAAN
118.6468°
Arg. of periapsis
273.1075°
True anomaly
87.00842°
Mean anomaly
86.9714°
Eccentric anomaly
86.98991°
Mean motion
3.74748 °/min
Orbital period
96.06 mins
BSTAR
0.00013182
Loading maneuver chart data...
Computing Atmospheric mass density...
Loading historical data...
Loading historical data...
Loading historical data...
Loading historical data...
Loading historical data...
Loading historical data...
Loading historical data...

Documentation

Showing up to 5 results
|